Satellite: FCAL
Catalog number: 29667
Epoch time:      08107.90761894
Element set:    0898
Inclination:      051.6258 deg
RA of node:       277.2812 deg
Eccentricity:    0.0003014
Arg of perigee:   110.2288 deg
Mean anomaly:     249.9139 deg
Mean motion:   16.12876714 rev/day
Decay rate:    1.31350e-03 rev/day^2
Epoch rev:           07667
Checksum:              326

Satellite: FALCON
Catalog number: 30776
Epoch time:      08108.59307229
Element set:     292
Inclination:      035.4333 deg
RA of node:       160.9739 deg
Eccentricity:    0.0001070
Arg of perigee:   263.8741 deg
Mean anomaly:     096.1852 deg
Mean motion:   15.02953128 rev/day
Decay rate:       3.47e-06 rev/day^2
Epoch rev:            6102
Checksum:              284

Satellite: MAST
Catalog number: 31126
Epoch time:      08108.65875094
Element set:     304
Inclination:      098.0416 deg
RA of node:       175.4999 deg
Eccentricity:    0.0095512
Arg of perigee:   159.0557 deg
Mean anomaly:     201.4592 deg
Mean motion:   14.53415159 rev/day
Decay rate:       -5.0e-08 rev/day^2
Epoch rev:            5322
Checksum:              297

Satellite: CAPE1
Catalog number: 31130
Epoch time:      08108.75541925
Element set:     285
Inclination:      098.0427 deg
RA of node:       174.7418 deg
Eccentricity:    0.0103429
Arg of perigee:   161.2196 deg
Mean anomaly:     199.2860 deg
Mean motion:   14.51951156 rev/day
Decay rate:       -7.0e-07 rev/day^2
Epoch rev:            5295
Checksum:              298

/EX





More information about the Keps mailing list